www.pogodaiklimat.ru

Погода и климат >> Архив погоды >> Нигер >> Агадес


ПОГОДА в Агадесе

  • Прогноз погоды в Агадесе
  • Монитор погоды в Агадесе

АРХИВ ПОГОДЫ в Агадесе

Время (UTC), дата Ветер
(напр.,м/с)
 
Видим.   Явления Облачность Т
(С)
Тd
(С)
f
(%)
Тe
(С)
Тes
(С)
Комфортность P
(гПа)
Po
(гПа)
Тmin
(С)
Tmax
(С)
R
(мм)
R24
(мм)
S
(см)
06 10.07 З 8 10 км 5/0
[Ac trans Ci sp]
+27.0 +21.3 71 +34 +34 очень
душно
1011.0 956.3 +26.7
09 10.07 СЗ 12 10 км 6/0
[Ac trans Ci sp]
+30.6 +21.4 58 +39 +39 очень
душно
1011.4 956.6
12 10.07 С 14 10 км 9/0
[Ac As]
+36.6 +19.0 36 +41 +41 опасность
перегрева
1009.8 955.5
15 10.07 С 14 10 км 6/3 1200 м
[Cb cap Ci sp]
+39.5 +17.1 27 +42 +42 опасность
перегрева
1006.7 952.5
18 10.07 С 22 10 км в посл. час гроза {дождь} 9/3 1200 м
[Cb cap Ac As]
+28.2 +20.1 61 +34 +34 очень
душно
1008.6 953.3 +39.8 4
06 11.07 С 6 10 км 9/0
[Cs]
+26.0 +21.3 75 +33 +33 очень
душно
1009.0 953.5 +26.0 4
09 11.07 СЗ 14 10 км 9/0
[Cs]
+31.8 +19.9 49 +38 +38 очень
душно
1009.1 954.4
12 11.07 З 16 10 км 8/0
[Cs]
+35.8 +20.9 42 +43 +43 опасность
перегрева
1007.5 952.8
15 11.07 З 14 3200 м пыль 9/1 1200 м
[Cu med, cong Cs]
+39.0 +18.4 30 +43 +43 опасность
перегрева
1004.5 950.0
18 11.07 СВ 32 3500 м сильн. гроза, ливневой дождь 9/5 1500 м
[Cb cap Ci sp]
+36.0 +19.1 37 +41 +41 опасность
перегрева
1004.8 950.2 +39.5 0.4
06 12.07 Ю 6 10 км 8/0
[Cs]
+26.8 +22.8 79 +36 +36 очень
душно
1008.5 953.8 +26.5 5
09 12.07 З 17 8000 м пыль 9/1 1200 м
[Cu hum Cs]
+29.6 +22.5 66 +39 +39 очень
душно
1009.3 954.3
12 12.07 З 16 8000 м пыль 8/3 1200 м
[Cu med, cong Ci sp]
+34.1 +20.8 46 +41 +41 опасность
перегрева
1008.4 953.9
15 12.07 Ю 4 8000 м пыль 8/3 1200 м
[Cb cap Ci sp]
+37.3 +18.4 33 +41 +45 опасность
перегрева
1006.5 952.1
18 12.07 Ю 6 10 км 8/1 1200 м
[Cb cap Ac cast Ci sp]
+36.0 +18.2 35 +40 +40 очень
душно
1006.9 952.4 +38.5
06 13.07 штиль 0 10 км 1/0
[Ci sp]
+25.5 +20.3 73 +31 +33 очень
душно
1011.9 957.0 +24.3
09 13.07 Ю 4 10 км 1/0
[Ci sp]
+31.4 +18.1 45 +36 +46 очень
душно
1013.7 958.6
12 13.07 Ю 4 10 км 1/0
[Ci sp]
+35.9 +18.0 35 +40 +54 опасность
солнечного
удара
1011.5 956.6
15 13.07 Ю 8 10 км 6/0
[Ci sp]
+38.7 +14.3 24 +39 +41 душно 1008.8 954.3
18 13.07 Ю 8 10 км 6/0
[Ac trans Ci sp]
+37.0 +13.2 24 +37 +37 очень
жарко
1008.5 953.9 +39.4
06 14.07 С 8 10 км 9/0
[Ac trans Ci sp]
+28.0 +21.0 66 +35 +35 очень
душно
1009.9 955.4 +24.1
09 14.07 СЗ 16 10 км 10/0
[Ac As]
+31.0 +20.0 52 +37 +37 очень
душно
1010.8 956.2
12 14.07 С 17 10 км 9/0
[Ac trans Ci sp]
+36.6 +18.8 35 +41 +41 опасность
перегрева
1008.9 954.7
15 14.07 С 17 10 км 6/1 1200 м
[Cu med, cong Ac trans Ci sp]
+39.6 +14.8 23 +40 +40 очень
душно
1005.8 951.8
18 14.07 С 16 7000 м пыль 9/1 1200 м
[Cb cap Ac cast Ci sp]
+35.1 +13.7 28 +36 +36 очень
жарко
1005.3 950.8 +40.2
06 15.07 Ю 6 10 км 9/0
[Cs]
+25.6 +20.8 75 +32 +32 очень
душно
1008.0 953.2 +24.7
09 15.07 З 8 8000 м пыль 8/0
[Cs]
+31.0 +20.0 52 +37 +40 очень
душно
1009.3 954.3
12 15.07 С 6 8000 м пыль 8/0
[Cs]
+37.3 +18.4 33 +41 +48 опасность
перегрева
1006.9 952.6
15 15.07 штиль 0 10 км 8/0
[Cs]
+41.0 +16.2 24 +43 +53 опасность
перегрева
1004.4 950.4
18 15.07 Ю 6 10 км 6/0
[Ac cast Ci sp]
+39.0 +11.6 19 +38 +38 очень
жарко
1004.4 950.1 +41.9
06 16.07 Ю 8 10 км 1/0
[Ci sp]
+28.9 +21.0 62 +36 +36 очень
душно
1009.1 954.9 +28.9
09 16.07 З 12 10 км 6/0
[Ci sp]
+33.0 +21.4 51 +41 +41 опасность
перегрева
1010.4 956.1
12 16.07 З 6 10 км 6/0
[Ci sp]
+37.9 +20.0 35 +43 +51 опасность
перегрева
1008.8 954.7
15 16.07 С 10 10 км 8/4 1200 м
[Cu med, cong Ci sp]
+40.6 +17.5 26 +43 +43 опасность
перегрева
1006.3 952.4
18 16.07 С 10 10 км гроза без осадков 6/3 1200 м
[Cb cap Ac cast Ci sp]
+34.5 +17.9 37 +38 +38 очень
душно
1007.1 952.6 +41.0

 

Местоположение метеостанции Агадес (Нигер): широта 16.97 долгота 7.97 высота над уровнем моря 502 м.

В архиве по умолчанию представлена погода в Агадесе за последнюю неделю. Архивные данные за месяц целиком и за предыдущие месяцы, начиная с января 2011 года, Вы можете получить, выбрав интересующий диапазон дат из раскрывающегося списка и нажав кнопку "Ввод!".


*Определитесь, кто Вы:
робот инопланетянин человек

Внимание! Время в таблицах - всемирное. Для получения местного времени необходимо прибавить поправку, которая равна 1 ч.

Смотрите также архив погоды в соседних городах и на ближайших метеорологических станциях:

Погода в Зиндере (Нигер) (371 км)
Погода в Тахве (Нигер) (371 км)
Погода в Ин-Геззаме (Алжир) (372 км)
Погода в Ин-Геззам аэропорту (Алжир) (372 км)
Погода в Маради (Нигер) (401 км)
Погода в Гуре (Нигер) (416 км)
Погода в Кацине (Нигерия) (440 км)
Погода в Анебарака (Алжир) (445 км)
Погода в Магарьа (Нигер) (456 км)
Погода в Вирнин-Конни (Нигер) (458 км)

Пояснения к столбцам:

Ветер - указаны скорость ветра в м/с - средняя за 10 мин, порывы в срок и между сроками (в фигурных скобках) и направление, откуда дует ветер: С - северный, СВ - северо-восточный, В - восточный, ЮВ - юго-восточный, Ю - южный, ЮЗ - юго-западный, З - западный, СЗ - северо-западный.
Видимость - горизонтальная дальность видимости в метрах или километрах. При видимости от 1 до 10 км при отсутствии осадков обычно наблюдается дымка, при ухудшении видимости до 1 км и менее - туман. В сухую погоду видимость может ухудшаться дымом, пылью или мглою.
Явления - указаны атмосферные явления, наблюдавшиеся в срок или в последний час перед сроком; фигурными скобками обозначены явления, наблюдавшиеся между сроками (за 1-3 часа до срока); квадратными скобками обозначены град или гололедные отложения с указанием их диаметра в мм.
Облачность - указаны через наклонную черту общая и нижняя облачность в баллах и высота нижней границы облаков в метрах; квадратными скобками обозначены формы облаков: Ci - перистые, Cs - перисто-слоистые, Cc - перисто-кучевые, Ac - высококучевые, As - высокослоистые, Sc - слоисто-кучевые, Ns - слоисто-дождевые, Cu - кучевые, Cb - кучево-дождевые. Подробнее классификацию облаков см. в Атласе облаков (PDF).
T - Температура воздуха - температура, измеренная на высоте 2 м над землей.
Td - Температура точки росы - температура, при понижении до которой содержащийся в воздухе водяной пар достигнет насыщения.
f - Относительная влажность воздуха - влажноcть воздуха, измеренная на высоте 2 м над землей.
Te - Эффективная температура - температура, которую ощущает одетый по сезону человек в тени. Характеристика душности погоды. При расчете учитывается влияние влажности воздуха и скорости ветра на теплоощущения человека.
Tes - Эффективная температура на солнце - температура, которую ощущает человек, с поправкой на солнечный нагрев. Характеристика знойности погоды. Зависит от высоты солнца над горизонтом, облачности и скорости ветра. Ночью, в пасмурную погоду, а также при ветре 12 м/с и более поправка равна нулю.
P - Атмосферное давление - приведенное к уровню моря атмосферное давление.
Po - Атмосферное давление - измеренное на уровне метеостанции атмосферное давление.
Tmin - Минимальная температура - минимум температуры воздуха на высоте 2 м над землей.
Tmax - Максимальная температура - максимум температуры воздуха на высоте 2 м над землей.
R - Количество осадков - Количество выпавших осадков за период времени, мм. При наведении курсора мыши на число - период времени, за который выпало указанное количество осадков.
R24 - Количество осадков - Количество выпавших осадков за 24 часа, мм.
S - Снежный покров - Высота снежного покрова, см. При наведении курсора мыши на число - состояние снежного покрова и степень покрытия местности в баллах.